period_start,C,m1,H,J0,J1,J2,J3,J4,J5,JA,JB,JC,JD,JJ,JK,JN,#
2017-09-28 00:01:24,0.01,1.40,0.00,20.77,25.85,29.00,14.05,41.83,1016.65,2037.94,3021.95,2708.03,3093.00,600.00,600.57,43.14,0000 0000 0000 0000 000000
2017-09-28 00:06:25,0.01,1.40,0.00,20.78,25.85,29.00,14.10,41.89,1016.64,2037.91,3021.21,2708.00,3092.94,600.04,600.62,43.19,0000 0000 0000 0000 000000
2017-09-28 00:11:26,0.02,1.40,0.00,20.77,25.85,29.01,13.99,41.90,1016.63,2037.95,3020.93,2707.95,3092.30,599.77,600.22,43.24,0000 0000 0000 0000 000000
2017-09-28 00:16:28,0.04,1.41,0.00,20.79,25.85,29.00,14.07,41.81,1016.63,2037.95,3020.10,2707.28,3092.00,599.88,600.44,43.29,0000 0000 0000 0000 000000
2017-09-28 00:21:29,0.00,1.41,0.00,20.82,25.85,29.00,14.03,41.78,1016.62,2037.77,3019.57,2707.00,3091.70,600.25,600.63,43.34,0000 0000 0000 0000 000000
2017-09-28 00:26:30,0.02,1.41,0.00,20.80,25.85,28.99,14.06,41.98,1016.62,2037.78,3019.01,2706.98,3091.07,599.78,600.45,43.39,0000 0000 0000 0000 000000
2017-09-28 00:31:31,0.02,1.41,0.00,20.81,25.85,28.99,14.05,41.97,1016.62,2037.80,3018.60,2706.77,3091.00,599.77,600.26,43.44,0000 0000 0000 0000 000000
2017-09-28 00:36:32,0.01,1.41,0.00,20.81,25.85,29.00,14.06,41.91,1016.62,2037.75,3018.02,2706.17,3090.99,599.80,600.31,43.49,0000 0000 0000 0000 000000
2017-09-28 00:41:33,0.02,1.41,0.00,20.83,25.86,29.01,14.03,41.79,1016.62,2037.69,3017.89,2706.00,3090.76,599.90,600.36,43.54,0000 0000 0000 0000 000000
2017-09-28 00:46:35,0.02,1.41,0.00,20.84,25.86,29.00,14.00,41.89,1016.62,2037.71,3017.20,2706.00,3090.20,600.01,600.42,43.59,0000 0000 0000 0000 000000
2017-09-28 00:51:36,-0.00,1.41,0.00,20.83,25.87,28.98,14.02,42.00,1016.62,2037.70,3017.00,2705.98,3090.01,599.90,600.38,43.64,0000 0000 0000 0000 000000
2017-09-28 00:56:37,0.02,1.41,0.00,20.84,25.87,28.99,14.02,41.93,1016.61,2037.86,3016.83,2705.90,3090.00,600.10,600.56,43.69,0000 0000 0000 0000 000000
2017-09-28 01:01:38,0.02,1.41,0.00,20.83,25.87,29.00,14.14,41.85,1016.61,2037.66,3016.07,2705.17,3089.82,600.91,601.34,43.74,0000 0000 0000 0000 000000
2017-09-28 01:06:40,0.01,1.41,0.00,20.83,25.87,28.99,14.08,41.83,1016.61,2037.62,3015.95,2705.00,3089.16,600.29,600.69,43.79,0000 0000 0000 0000 000000
2017-09-28 01:11:41,0.03,1.41,0.00,20.95,25.87,28.99,13.98,41.90,1016.61,2037.71,3015.22,2704.99,3089.01,599.76,600.06,43.84,0000 0000 0000 0000 000000
2017-09-28 01:16:42,0.01,1.42,0.00,21.21,25.88,29.01,13.95,41.86,1016.61,2037.57,3014.93,2704.51,3088.76,599.85,599.52,43.89,0000 0000 0000 0000 000000
2017-09-28 01:21:43,0.04,1.42,0.00,21.42,25.90,29.01,13.98,41.82,1016.62,2037.35,3013.81,2703.65,3087.72,600.08,599.25,43.94,0000 0000 0000 0000 000000
2017-09-28 01:26:45,0.06,1.42,0.00,21.60,25.92,29.02,13.95,41.83,1016.60,2037.15,3012.57,2702.64,3086.56,599.80,598.61,43.99,0000 0000 0000 0000 000000
2017-09-28 01:31:46,0.01,1.42,0.00,21.74,25.95,29.04,13.98,41.76,1016.56,2037.08,3011.91,2702.01,3085.99,600.16,598.59,44.04,0000 0000 0000 0000 000000
2017-09-28 01:36:47,0.05,1.42,0.00,21.90,25.98,29.05,13.94,41.77,1016.57,2037.04,3011.08,2701.62,3085.34,600.14,598.33,44.10,0000 0000 0000 0000 000000
2017-09-28 01:41:49,0.02,1.43,0.00,22.04,26.01,29.06,13.88,41.59,1016.57,2037.01,3010.65,2701.01,3084.95,599.91,597.96,44.15,0000 0000 0000 0000 000000
2017-09-28 01:46:50,0.04,1.43,0.00,22.20,26.05,29.09,13.88,41.58,1016.55,2037.00,3010.01,2700.63,3084.25,599.93,597.36,44.20,0000 0000 0000 0000 000000
2017-09-28 01:51:51,0.02,1.43,0.00,22.32,26.09,29.12,13.90,41.54,1016.53,2037.00,3009.27,2700.02,3083.95,599.57,597.03,44.25,0000 0000 0000 0000 000000
2017-09-28 01:56:53,0.01,1.43,0.00,22.43,26.13,29.16,13.89,41.53,1016.50,2036.97,3008.99,2699.89,3083.15,599.79,597.01,44.30,0000 0000 0000 0000 000000
2017-09-28 02:01:54,-0.01,1.43,0.00,22.36,26.17,29.20,13.91,41.57,1016.47,2036.68,3008.54,2699.13,3082.99,600.24,597.55,44.35,0000 0000 0000 0000 000000
2017-09-28 02:06:56,-0.02,1.43,0.00,22.27,26.21,29.24,13.96,41.59,1016.48,2036.20,3008.01,2699.00,3082.61,600.18,597.59,44.40,0000 0000 0000 0000 000000
2017-09-28 02:11:57,-0.00,1.43,0.00,22.19,26.24,29.30,13.96,41.52,1016.48,2036.02,3007.98,2698.95,3082.04,599.82,597.41,44.45,0000 0000 0000 0000 000000
2017-09-28 02:16:58,0.02,1.43,0.00,22.14,26.26,29.35,13.99,41.60,1016.48,2036.00,3007.73,2698.59,3081.99,600.36,598.00,44.50,0000 0000 0000 0000 000000
2017-09-28 02:21:59,0.02,1.43,0.00,22.12,26.29,29.37,13.84,41.58,1016.46,2036.00,3007.08,2698.08,3081.83,599.96,597.67,44.55,0000 0000 0000 0000 000000
2017-09-28 02:27:00,0.01,1.43,0.00,22.05,26.32,29.42,13.94,41.53,1016.46,2036.00,3007.00,2698.00,3081.36,599.80,597.59,44.60,0000 0000 0000 0000 000000
2017-09-28 02:32:01,0.00,1.43,0.00,21.98,26.35,29.45,13.92,41.59,1016.49,2035.99,3006.99,2697.99,3081.01,599.63,597.78,44.65,0000 0000 0000 0000 000000
2017-09-28 02:37:02,-0.00,1.43,0.00,21.99,26.36,29.48,13.94,41.62,1016.54,2035.96,3006.87,2697.97,3081.00,599.97,598.00,44.70,0000 0000 0000 0000 000000
2017-09-28 02:42:04,0.03,1.43,0.00,21.95,26.39,29.52,13.98,41.60,1016.60,2035.96,3006.14,2697.63,3080.99,599.95,598.11,44.75,0000 0000 0000 0000 000000
2017-09-28 02:47:05,0.02,1.44,0.00,21.93,26.40,29.53,13.98,41.51,1016.61,2035.97,3006.00,2697.11,3080.69,600.27,598.45,44.80,0000 0000 0000 0000 000000
2017-09-28 02:52:06,0.00,1.44,0.00,21.95,26.42,29.55,13.94,41.67,1016.62,2035.92,3005.98,2697.01,3080.18,599.73,597.95,44.85,0000 0000 0000 0000 000000
2017-09-28 02:57:07,-0.00,1.44,0.00,21.89,26.44,29.55,14.04,41.63,1016.62,2035.85,3005.92,2697.00,3080.02,600.48,598.78,44.90,0000 0000 0000 0000 000000
2017-09-28 03:02:09,-0.02,1.44,0.00,21.87,26.45,29.59,14.01,41.79,1016.62,2035.50,3005.27,2696.99,3080.00,600.50,598.75,44.95,0000 0000 0000 0000 000000
2017-09-28 03:07:10,-0.01,1.43,0.00,21.91,26.47,29.59,13.95,41.69,1016.62,2035.20,3004.99,2696.73,3079.87,599.77,597.86,45.00,0000 0000 0000 0000 000000
2017-09-28 03:12:11,0.05,1.44,0.00,21.87,26.48,29.60,14.01,41.62,1016.62,2035.22,3004.49,2696.07,3079.21,600.01,598.34,45.06,0000 0000 0000 0000 000000
2017-09-28 03:17:13,-0.00,1.44,0.00,21.87,26.50,29.62,13.95,41.59,1016.62,2035.13,3003.86,2695.87,3078.88,599.88,598.31,45.11,0000 0000 0000 0000 000000
2017-09-28 03:22:14,0.14,1.44,0.00,21.86,26.50,29.62,13.89,41.58,1016.62,2035.05,3001.72,2694.36,3077.19,599.63,597.91,45.16,0000 0000 0000 0000 000000
2017-09-28 03:27:15,0.07,1.45,0.00,21.83,26.52,29.64,13.96,41.64,1016.62,2035.04,3000.08,2693.08,3075.93,600.14,598.63,45.21,0000 0000 0000 0000 000000
2017-09-28 03:32:16,0.02,1.45,0.00,21.90,26.52,29.65,13.93,41.57,1016.62,2035.01,2999.59,2693.00,3075.27,599.78,598.04,45.26,0000 0000 0000 0000 000000
2017-09-28 03:37:18,0.01,1.45,0.00,21.88,26.53,29.66,13.97,41.64,1016.62,2035.02,2999.09,2692.95,3075.03,600.12,598.48,45.31,0000 0000 0000 0000 000000
2017-09-28 03:42:19,0.01,1.45,0.00,21.81,26.55,29.67,13.98,41.64,1016.62,2035.02,2999.01,2692.65,3075.00,599.96,598.58,45.36,0000 0000 0000 0000 000000
2017-09-28 03:47:20,0.01,1.45,0.00,21.84,26.55,29.66,13.91,41.65,1016.62,2035.02,2998.99,2692.22,3075.00,599.76,598.23,45.41,0000 0000 0000 0000 000000
2017-09-28 03:52:22,0.00,1.45,0.00,21.85,26.56,29.67,13.97,41.61,1016.61,2035.01,2998.98,2692.15,3074.99,600.18,598.54,45.46,0000 0000 0000 0000 000000
2017-09-28 03:57:23,0.00,1.45,0.00,21.85,26.57,29.67,13.99,41.59,1016.62,2035.00,2998.90,2692.04,3074.98,600.15,598.47,45.51,0000 0000 0000 0000 000000
2017-09-28 04:02:24,0.01,1.45,0.00,21.87,26.57,29.69,14.00,41.70,1016.62,2035.00,2998.27,2692.00,3074.81,600.16,598.52,45.56,0000 0000 0000 0000 000000
2017-09-28 04:07:25,0.01,1.45,0.00,21.87,26.58,29.70,13.98,41.71,1016.62,2035.00,2998.05,2692.00,3074.30,599.72,598.09,45.61,0000 0000 0000 0000 000000
2017-09-28 04:12:27,0.00,1.45,0.00,21.86,26.60,29.70,14.01,41.67,1016.62,2035.00,2998.02,2692.00,3074.08,600.15,598.43,45.66,0000 0000 0000 0000 000000
2017-09-28 04:17:28,0.00,1.45,0.00,21.91,26.61,29.72,13.89,41.57,1016.62,2035.00,2998.00,2691.99,3074.02,599.84,598.03,45.71,0000 0000 0000 0000 000000
2017-09-28 04:22:29,0.00,1.45,0.00,21.88,26.62,29.72,13.93,41.55,1016.62,2035.00,2998.00,2691.97,3074.01,599.57,597.91,45.76,0000 0000 0000 0000 000000
2017-09-28 04:27:30,0.00,1.45,0.00,21.86,26.63,29.73,13.92,41.60,1016.62,2035.00,2998.00,2691.97,3074.00,599.90,598.28,45.81,0000 0000 0000 0000 000000
2017-09-28 04:32:31,0.00,1.45,0.00,21.89,26.65,29.73,13.92,41.61,1016.62,2034.99,2998.00,2691.94,3074.00,599.88,598.26,45.86,0000 0000 0000 0000 000000
2017-09-28 04:37:33,0.01,1.45,0.00,21.89,26.65,29.75,13.95,41.58,1016.62,2034.98,2997.93,2691.64,3073.98,599.85,598.14,45.92,0000 0000 0000 0000 000000
2017-09-28 04:42:34,0.02,1.45,0.00,21.87,26.67,29.76,13.83,41.63,1016.62,2034.97,2997.72,2691.19,3073.93,599.58,597.97,45.97,0000 0000 0000 0000 000000
2017-09-28 04:47:35,0.02,1.46,0.00,21.93,26.67,29.77,13.94,41.68,1016.62,2034.97,2997.27,2691.07,3073.50,600.01,598.19,46.02,0000 0000 0000 0000 000000
2017-09-28 04:52:36,0.00,1.46,0.00,21.92,26.70,29.78,13.94,41.73,1016.62,2034.93,2997.14,2691.02,3073.19,599.83,598.14,46.07,0000 0000 0000 0000 000000
2017-09-28 04:57:38,-0.00,1.46,0.00,21.92,26.70,29.79,13.98,41.77,1016.62,2034.92,2997.04,2691.01,3073.06,599.79,597.93,46.12,0000 0000 0000 0000 000000
2017-09-28 05:02:39,0.00,1.46,0.00,21.98,26.72,29.79,13.99,41.82,1016.62,2034.89,2997.00,2691.00,3073.00,600.28,598.26,46.17,0000 0000 0000 0000 000000
2017-09-28 05:07:40,-0.04,1.46,0.00,21.97,26.72,29.81,13.94,41.69,1016.62,2034.69,2996.99,2691.00,3073.00,599.81,597.83,46.22,0000 0000 0000 0000 000000
2017-09-28 05:12:41,-0.01,1.45,0.00,21.94,26.74,29.82,14.03,41.77,1016.63,2034.50,2996.99,2691.00,3073.00,600.19,598.38,46.27,0000 0000 0000 0000 000000
2017-09-28 05:17:43,-0.02,1.45,0.00,21.99,26.75,29.83,13.94,41.76,1016.63,2034.20,2996.95,2690.95,3072.96,599.89,597.87,46.32,0000 0000 0000 0000 000000
2017-09-28 05:22:44,0.04,1.45,0.00,22.01,26.76,29.83,13.96,41.69,1016.64,2034.06,2996.40,2690.48,3072.68,600.07,598.15,46.37,0000 0000 0000 0000 000000
2017-09-28 05:27:46,0.01,1.45,0.00,21.98,26.77,29.85,14.01,41.74,1016.64,2034.04,2996.05,2690.07,3072.15,600.12,598.07,46.42,0000 0000 0000 0000 000000
2017-09-28 05:32:47,-0.01,1.45,0.00,22.00,26.79,29.85,13.94,41.82,1016.65,2034.01,2996.35,2690.13,3072.03,599.76,597.89,46.47,0000 0000 0000 0000 000000
2017-09-28 05:37:48,0.01,1.45,0.00,22.03,26.80,29.86,14.01,41.81,1016.64,2034.00,2996.25,2690.05,3072.00,600.28,598.21,46.52,0000 0000 0000 0000 000000
2017-09-28 05:42:49,0.00,1.45,0.00,22.02,26.81,29.88,14.04,41.85,1016.64,2034.00,2996.05,2690.01,3072.00,600.28,598.36,46.57,0000 0000 0000 0000 000000
2017-09-28 05:47:51,0.00,1.45,0.00,22.07,26.82,29.89,13.91,41.68,1016.64,2033.99,2996.00,2690.00,3071.99,600.13,597.98,46.62,0000 0000 0000 0000 000000
2017-09-28 05:52:52,-0.00,1.45,0.00,22.05,26.83,29.89,13.95,41.75,1016.64,2033.97,2996.00,2690.00,3071.98,599.58,597.54,46.67,0000 0000 0000 0000 000000
2017-09-28 05:57:53,0.00,1.45,0.00,22.04,26.85,29.90,13.96,41.83,1016.65,2033.98,2996.00,2690.00,3071.95,599.71,597.72,46.72,0000 0000 0000 0000 000000
2017-09-28 06:02:54,-0.00,1.45,0.00,22.06,26.85,29.91,14.01,41.79,1016.76,2033.94,2996.00,2689.99,3071.83,600.14,598.19,46.77,0000 0000 0000 0000 000000
2017-09-28 06:07:55,0.01,1.46,0.00,22.09,26.86,29.94,13.98,41.77,1017.00,2033.96,2995.94,2689.97,3071.42,600.36,598.30,46.82,0000 0000 0000 0000 000000
2017-09-28 06:12:57,0.01,1.46,0.00,22.09,26.87,29.93,14.01,41.75,1017.07,2033.95,2995.50,2689.92,3071.07,600.10,598.24,46.88,0000 0000 0000 0000 000000
2017-09-28 06:17:58,0.00,1.46,0.00,22.11,26.87,29.95,13.99,41.80,1017.08,2033.84,2995.10,2689.71,3071.02,599.96,597.99,46.93,0000 0000 0000 0000 000000
2017-09-28 06:23:00,-0.00,1.46,0.00,22.15,26.90,29.97,13.92,41.69,1017.09,2033.69,2995.01,2689.27,3071.00,599.84,597.79,46.98,0000 0000 0000 0000 000000
2017-09-28 06:28:01,-0.02,1.46,0.00,22.08,26.90,29.97,14.00,41.76,1017.10,2033.41,2995.01,2689.14,3071.00,599.90,598.10,47.03,0000 0000 0000 0000 000000
2017-09-28 06:33:02,-0.01,1.46,0.00,22.08,26.90,29.99,13.90,41.68,1017.10,2033.41,2995.00,2689.11,3071.00,599.86,597.99,47.08,0000 0000 0000 0000 000000
2017-09-28 06:38:03,-0.01,1.45,0.00,22.15,26.92,29.99,14.01,41.75,1017.10,2033.22,2995.00,2689.04,3071.00,599.87,598.04,47.13,0000 0000 0000 0000 000000
2017-09-28 06:43:05,-0.01,1.45,0.00,22.13,26.92,29.99,13.98,41.76,1017.10,2033.13,2995.00,2689.00,3070.98,599.92,597.95,47.18,0000 0000 0000 0000 000000
2017-09-28 06:48:06,-0.00,1.45,0.00,22.09,26.94,30.00,13.95,41.72,1017.10,2033.10,2994.95,2689.00,3070.95,599.91,598.11,47.23,0000 0000 0000 0000 000000
2017-09-28 06:53:08,0.01,1.45,0.00,22.12,26.95,30.01,13.99,41.78,1017.10,2033.07,2994.58,2689.00,3070.74,599.96,598.19,47.28,0000 0000 0000 0000 000000
2017-09-28 06:58:09,0.01,1.46,0.00,22.14,26.95,30.03,13.98,41.70,1017.10,2033.03,2994.20,2689.00,3070.23,600.03,598.00,47.33,0000 0000 0000 0000 000000
2017-09-28 07:03:10,-0.00,1.45,0.00,22.13,26.96,30.04,13.92,41.72,1017.10,2033.01,2994.36,2688.99,3070.15,600.03,598.21,47.38,0000 0000 0000 0000 000000
2017-09-28 07:08:11,0.01,1.46,0.00,22.16,26.97,30.04,13.93,41.75,1017.10,2033.00,2994.12,2688.98,3070.05,599.75,597.77,47.43,0000 0000 0000 0000 000000
2017-09-28 07:13:12,0.00,1.46,0.00,22.15,26.97,30.05,14.03,41.72,1017.11,2033.00,2994.03,2688.90,3070.01,599.99,597.98,47.48,0000 0000 0000 0000 000000
2017-09-28 07:18:13,0.00,1.46,0.00,22.22,26.98,30.07,13.90,41.77,1017.11,2033.00,2994.02,2688.87,3070.01,599.34,597.20,47.53,0000 0000 0000 0000 000000
2017-09-28 07:23:15,0.00,1.46,0.00,22.54,27.00,30.08,13.88,41.62,1017.12,2033.00,2994.03,2688.86,3070.00,599.78,597.13,47.58,0000 0000 0000 0000 000000
2017-09-28 07:28:16,0.01,1.46,0.00,22.85,27.00,30.10,13.92,41.73,1017.13,2033.00,2994.00,2688.49,3070.00,600.17,596.85,47.63,0000 0000 0000 0000 000000
2017-09-28 07:33:17,0.01,1.46,0.00,23.05,27.02,30.16,13.86,41.58,1017.13,2033.00,2994.00,2688.08,3069.99,599.83,596.18,47.68,0000 0000 0000 0000 000000
2017-09-28 07:38:19,-0.00,1.46,0.00,22.92,27.04,30.30,13.86,41.71,1017.13,2032.98,2993.99,2688.02,3069.97,599.81,596.42,47.73,0000 0000 0000 0000 000000
2017-09-28 07:43:20,0.00,1.46,0.00,22.64,27.05,30.30,13.95,41.58,1017.14,2032.99,2993.95,2688.01,3069.93,600.09,597.15,47.78,0000 0000 0000 0000 000000
2017-09-28 07:48:21,0.01,1.46,0.00,22.41,27.05,30.28,13.99,41.67,1017.19,2032.98,2993.79,2688.00,3069.73,600.12,597.65,47.84,0000 0000 0000 0000 000000
2017-09-28 07:53:22,0.01,1.46,0.00,22.28,27.05,30.26,13.99,41.70,1017.22,2032.97,2993.48,2688.00,3069.59,600.28,598.12,47.89,0000 0000 0000 0000 000000
2017-09-28 07:58:23,0.00,1.46,0.00,22.22,27.05,30.23,14.02,41.76,1017.18,2032.97,2993.14,2688.00,3069.32,599.78,597.70,47.94,0000 0000 0000 0000 000000
2017-09-28 08:03:24,0.01,1.46,0.00,22.21,27.05,30.25,13.90,41.80,1017.18,2032.97,2993.11,2688.00,3069.22,599.57,597.51,47.99,0000 0000 0000 0000 000000
2017-09-28 08:08:26,0.00,1.46,0.00,22.15,27.05,30.23,13.97,41.82,1017.22,2032.97,2993.04,2688.00,3069.07,599.86,597.87,48.04,0000 0000 0000 0000 000000
2017-09-28 08:13:27,0.00,1.46,0.00,22.13,27.05,30.23,13.94,41.73,1017.29,2032.98,2993.01,2688.00,3069.06,599.98,598.18,48.09,0000 0000 0000 0000 000000
2017-09-28 08:18:28,-0.00,1.46,0.00,22.14,27.04,30.23,13.97,41.84,1017.29,2032.99,2993.00,2688.00,3069.04,599.81,597.87,48.14,0000 0000 0000 0000 000000
2017-09-28 08:23:29,-0.00,1.46,0.00,22.12,27.04,30.22,13.98,41.85,1017.31,2032.98,2993.03,2688.00,3069.12,600.09,598.48,48.19,0000 0000 0000 0000 000000
2017-09-28 08:28:31,0.00,1.46,0.00,22.13,27.03,30.23,13.94,41.77,1017.37,2032.98,2993.03,2688.00,3069.05,600.02,598.19,48.24,0000 0000 0000 0000 000000
2017-09-28 08:33:32,0.00,1.46,0.00,22.18,27.03,30.13,14.03,41.75,1017.40,2032.98,2993.01,2688.00,3069.04,600.16,598.30,48.29,0000 0000 0000 0000 000000
2017-09-28 08:38:33,-0.00,1.46,0.00,22.13,27.03,30.13,13.99,41.78,1017.45,2032.97,2993.01,2687.99,3069.01,599.98,598.25,48.34,0000 0000 0000 0000 000000
2017-09-28 08:43:35,-0.00,1.46,0.00,22.10,27.03,30.12,14.06,41.79,1017.52,2032.96,2993.00,2687.99,3069.01,600.07,598.44,48.39,0000 0000 0000 0000 000000
2017-09-28 08:48:36,-0.00,1.46,0.00,22.13,27.02,30.12,14.01,41.83,1017.53,2032.97,2993.00,2687.99,3069.00,599.71,598.13,48.44,0000 0000 0000 0000 000000
2017-09-28 08:53:37,0.00,1.46,0.00,22.16,27.02,30.12,14.01,41.72,1017.55,2032.97,2993.00,2687.98,3069.00,600.10,598.39,48.49,0000 0000 0000 0000 000000
2017-09-28 08:58:38,0.00,1.46,0.00,22.43,27.03,30.09,13.94,41.63,1017.56,2032.98,2993.00,2687.99,3069.01,600.15,597.91,48.54,0000 0000 0000 0000 000000
2017-09-28 09:03:40,-0.00,1.46,0.00,22.85,27.05,30.15,13.92,41.47,1017.57,2032.94,2993.00,2687.99,3069.00,599.93,596.76,48.59,0000 0000 0000 0000 000000
2017-09-28 09:08:41,-0.00,1.46,0.00,23.05,27.05,30.27,13.88,41.52,1017.57,2032.91,2993.00,2687.98,3069.00,600.08,596.63,48.64,0000 0000 0000 0000 000000
2017-09-28 09:13:42,-0.01,1.46,0.00,23.11,27.07,30.29,13.88,41.62,1017.58,2032.82,2993.00,2687.96,3069.00,599.95,596.39,48.69,0000 0000 0000 0000 000000
2017-09-28 09:18:44,-0.01,1.46,0.00,22.79,27.07,30.26,13.92,41.63,1017.59,2032.69,2992.99,2687.94,3068.97,599.92,596.97,48.74,0000 0000 0000 0000 000000
2017-09-28 09:23:45,-0.01,1.46,0.00,22.49,27.07,30.18,14.08,41.70,1017.59,2032.59,2992.97,2687.90,3068.98,600.22,597.88,48.80,0000 0000 0000 0000 000000
2017-09-28 09:28:46,-0.00,1.46,0.00,22.31,27.07,30.16,13.99,41.78,1017.59,2032.48,2992.92,2687.86,3068.92,599.97,597.86,48.85,0000 0000 0000 0000 000000
2017-09-28 09:33:47,0.01,1.46,0.00,22.22,27.06,30.16,13.93,41.69,1017.59,2032.54,2992.84,2687.86,3068.96,599.90,598.15,48.90,0000 0000 0000 0000 000000
2017-09-28 09:38:49,0.02,1.46,0.00,22.18,27.05,30.16,14.04,41.73,1017.58,2032.59,2992.68,2687.82,3068.94,600.12,598.38,48.95,0000 0000 0000 0000 000000
2017-09-28 09:43:50,0.01,1.46,0.00,22.15,27.05,30.19,14.01,41.69,1017.57,2032.65,2992.31,2687.76,3068.91,600.15,598.43,49.00,0000 0000 0000 0000 000000
2017-09-28 09:48:51,0.01,1.46,0.00,22.11,27.04,30.19,14.01,41.77,1017.53,2032.83,2992.22,2687.82,3068.91,600.15,598.52,49.05,0000 0000 0000 0000 000000
2017-09-28 09:53:52,0.00,1.46,0.00,22.05,27.02,30.20,14.05,41.74,1017.55,2032.83,2992.12,2687.71,3068.85,599.93,598.45,49.10,0000 0000 0000 0000 000000
2017-09-28 09:58:54,0.00,1.46,0.00,22.05,27.02,30.20,13.94,41.82,1017.53,2032.85,2992.08,2687.68,3068.88,599.66,598.21,49.15,0000 0000 0000 0000 000000
2017-09-28 10:03:55,0.01,1.46,0.00,22.04,27.02,30.19,14.01,41.74,1017.54,2032.91,2992.02,2687.61,3068.75,600.00,598.50,49.20,0000 0000 0000 0000 000000
2017-09-28 10:08:56,-0.00,1.46,0.00,22.02,27.02,30.20,14.04,41.83,1017.53,2032.92,2992.01,2687.66,3068.72,599.99,598.62,49.25,0000 0000 0000 0000 000000
2017-09-28 10:13:57,0.01,1.46,0.00,22.05,27.00,30.20,14.01,41.76,1017.54,2032.96,2992.00,2687.67,3068.75,600.18,598.72,49.30,0000 0000 0000 0000 000000
2017-09-28 10:18:59,0.01,1.46,0.00,22.03,27.00,30.16,13.98,41.79,1017.55,2032.97,2992.00,2687.44,3068.49,600.02,598.53,49.35,0000 0000 0000 0000 000000
2017-09-28 10:24:00,0.01,1.46,0.00,22.00,27.00,30.16,14.00,41.76,1017.54,2032.98,2992.00,2687.28,3068.22,599.94,598.46,49.40,0000 0000 0000 0000 000000
2017-09-28 10:29:01,0.00,1.46,0.00,22.01,27.00,30.11,14.01,41.67,1017.52,2032.96,2992.00,2687.20,3068.12,600.00,598.61,49.45,0000 0000 0000 0000 000000
2017-09-28 10:34:02,0.00,1.46,0.00,22.02,27.00,30.07,14.01,41.77,1017.45,2032.97,2992.00,2687.17,3068.08,600.03,598.60,49.50,0000 0000 0000 0000 000000
2017-09-28 10:39:04,0.00,1.46,0.00,22.02,27.00,30.07,13.98,41.80,1017.49,2032.97,2991.98,2687.10,3068.03,599.97,598.49,49.55,0000 0000 0000 0000 000000
2017-09-28 10:44:05,-0.00,1.46,0.00,22.06,27.00,30.06,13.99,41.73,1017.55,2032.98,2991.98,2687.09,3068.02,600.06,598.52,49.60,0000 0000 0000 0000 000000
2017-09-28 10:49:06,-0.00,1.46,0.00,22.38,27.00,30.08,13.99,41.73,1017.57,2032.99,2991.98,2687.10,3068.04,600.17,598.09,49.65,0000 0000 0000 0000 000000
2017-09-28 10:54:07,0.00,1.46,0.00,22.78,27.00,30.12,13.94,41.67,1017.58,2032.98,2991.97,2687.06,3068.02,600.12,597.24,49.70,0000 0000 0000 0000 000000
2017-09-28 10:59:09,-0.00,1.46,0.00,22.97,27.02,30.25,13.91,41.67,1017.58,2032.96,2991.89,2687.02,3068.00,599.90,596.60,49.76,0000 0000 0000 0000 000000
2017-09-28 11:04:10,0.00,1.46,0.00,23.05,27.02,30.24,13.84,41.58,1017.59,2032.92,2991.68,2687.01,3068.00,600.02,596.57,49.81,0000 0000 0000 0000 000000
2017-09-28 11:09:11,-0.00,1.46,0.00,22.68,27.02,30.18,13.90,41.60,1017.59,2032.83,2991.20,2687.00,3067.99,599.76,597.08,49.86,0000 0000 0000 0000 000000
2017-09-28 11:14:12,0.00,1.46,0.00,22.35,27.03,30.15,13.98,41.70,1017.59,2032.89,2991.17,2687.00,3067.99,600.21,598.06,49.91,0000 0000 0000 0000 000000
2017-09-28 11:19:14,-0.00,1.46,0.00,22.23,27.02,30.12,13.97,41.66,1017.59,2032.90,2991.04,2687.00,3067.98,600.29,598.50,49.96,0000 0000 0000 0000 000000
2017-09-28 11:24:15,-0.00,1.46,0.00,22.21,27.02,30.16,14.00,41.67,1017.59,2032.88,2991.00,2687.00,3067.98,600.26,598.35,50.01,0000 0000 0000 0000 000000
2017-09-28 11:29:16,0.00,1.46,0.00,22.14,27.02,30.17,13.96,41.70,1017.59,2032.89,2991.00,2687.00,3067.96,599.72,598.03,50.06,0000 0000 0000 0000 000000
2017-09-28 11:34:17,-0.01,1.46,0.00,22.07,27.01,30.16,14.02,41.80,1017.59,2032.84,2991.00,2687.00,3067.97,600.02,598.56,50.11,0000 0000 0000 0000 000000
2017-09-28 11:39:19,-0.01,1.46,0.00,22.06,27.00,30.15,13.99,41.91,1017.59,2032.72,2991.00,2687.00,3067.90,599.86,598.55,50.16,0000 0000 0000 0000 000000
2017-09-28 11:44:20,0.01,1.46,0.00,22.05,27.00,30.18,14.01,41.77,1017.59,2032.78,2991.00,2687.00,3067.87,600.11,598.66,50.21,0000 0000 0000 0000 000000
2017-09-28 11:49:21,0.01,1.46,0.00,22.00,27.00,30.18,14.03,41.83,1017.58,2032.88,2990.99,2687.00,3067.86,600.23,598.89,50.26,0000 0000 0000 0000 000000
2017-09-28 11:54:23,-0.00,1.46,0.00,21.97,26.99,30.16,13.97,41.82,1017.59,2032.95,2990.99,2687.00,3067.94,599.88,598.57,50.31,0000 0000 0000 0000 000000
2017-09-28 11:59:24,0.00,1.46,0.00,22.02,26.97,30.16,14.10,41.91,1017.57,2032.97,2990.99,2687.00,3067.98,600.17,598.70,50.36,0000 0000 0000 0000 000000
2017-09-28 12:04:25,0.00,1.46,0.00,22.00,26.97,30.10,13.95,41.83,1017.55,2032.97,2990.99,2687.00,3067.95,599.70,598.31,50.41,0000 0000 0000 0000 000000
2017-09-28 12:09:26,0.00,1.46,0.00,21.99,26.97,30.09,13.94,41.74,1017.52,2032.97,2990.99,2687.00,3067.94,600.08,598.68,50.46,0000 0000 0000 0000 000000
2017-09-28 12:14:27,0.00,1.46,0.00,21.99,26.97,30.08,13.96,41.73,1017.51,2032.98,2990.98,2687.00,3067.93,599.90,598.69,50.51,0000 0000 0000 0000 000000
2017-09-28 12:19:29,0.00,1.46,0.00,22.00,26.97,30.07,14.03,41.71,1017.43,2032.98,2990.98,2687.00,3067.93,600.01,598.39,50.56,0000 0000 0000 0000 000000
2017-09-28 12:24:30,0.00,1.46,0.00,21.98,26.97,30.07,14.01,41.79,1017.43,2032.99,2990.97,2687.00,3067.96,599.95,598.53,50.61,0000 0000 0000 0000 000000
2017-09-28 12:29:31,0.00,1.46,0.00,22.09,26.97,30.06,13.99,41.95,1017.40,2032.99,2990.91,2687.00,3067.95,600.44,598.78,50.67,0000 0000 0000 0000 000000
2017-09-28 12:34:32,0.00,1.46,0.00,22.54,26.97,30.07,14.03,41.69,1017.37,2032.99,2990.79,2687.00,3067.84,600.26,597.62,50.72,0000 0000 0000 0000 000000
2017-09-28 12:39:34,0.01,1.46,0.00,22.76,26.98,30.14,13.90,41.75,1017.32,2032.98,2990.39,2687.00,3067.32,600.26,597.13,50.77,0000 0000 0000 0000 000000
2017-09-28 12:44:34,0.00,1.46,0.00,22.74,27.00,30.22,13.91,41.83,1017.25,2032.98,2990.05,2687.00,3067.07,599.66,596.61,50.82,0000 0000 0000 0000 000000
2017-09-28 12:49:36,0.00,1.46,0.00,22.60,27.00,30.22,13.97,41.68,1017.23,2032.99,2990.00,2686.99,3067.03,599.84,597.01,50.87,0000 0000 0000 0000 000000
2017-09-28 12:54:37,0.00,1.46,0.00,22.43,27.00,30.23,14.00,41.74,1017.17,2032.99,2990.00,2686.97,3067.01,600.04,597.62,50.92,0000 0000 0000 0000 000000